Location: Ponte Samoggia
(44.5667°N, 11.1333°E)
Time: 22:29:44
(UTC+00:00)

Lacrosse 5 rocket - Pass Details

Date: 26 May 2022
Orbit: 456 x 629 km, 57.0° (Epoch: 29 June)

Event Time Altitude Azimuth Distance (km) Brightness Sun altitude
Exits shadow 01:22:08 45° 193° (SSW) 704 1.4 -18.0°
Maximum altitude 01:23:06 63° 135° (SE) 577 1.3 -17.9°
Drops below altitude 10° 01:27:06 10° 54° (NE) 1,797 5.0 -17.5°
Sets 01:29:25 0° 51° (NE) 2,725 6.3 -17.3°
